Starlink 36640

operational
NORAD ID: 67600 Int'l Des: 2026-018 Owner: SPXS Country: US Constellation: starlink
NOTLE

About Starlink 36640

Description loading...

Live Position

Loading 3D Globe...

Upcoming Passes

Altitude History

Altitude vs Time

uPlot chart will show altitude changes over time

Two-Line Element Set

1 67600U 26018M 26047.52268435 .00261679 00000-0 16953-2 0 9997
2 67600 97.2835 112.2530 0001090 145.7566 214.3770 15.75281801 3974
Epoch: Feb 16, 2026 • Age: 12 hours

Current Status

Altitude 367.2 km
Velocity 7.69 km/s
Sub-Earth Point -60.68°S, 28.35°W
Launch Date Jan 29, 2026
Age 18 days
Type internet

Technical Details

Classification Payload
Mass 575.00 kg
Dry Mass 530.00 kg
Total Mass 575.00 kg
Length 0.30 m
Diameter 4.10 m
Span 29.00 m
Shape Box + pan
Manufacturer SPXS
Bus Type Starlink V2MO
Phase Status In Orbit
Owner/State SPXS/US

Large Constellations

Loading constellations...